Tracking 30970 objects as of 3-Jul-2025
HD Live streaming from Space Station
objects crossing your sky now

COSMOS 1348

Track COSMOS 1348 now!
COSMOS 1348 is classified as:


NORAD ID: 13124
Int'l Code: 1982-029A
Perigee: 6,802.9 km
Apogee: 33,611.6 km
Inclination: 71.9 °
Period: 718.7 minutes
Semi major axis: 26578 km
RCS: 16.1516 m2 (large)
Launch date: April 7, 1982
Source: Commonwealth of Independent States (former USSR) (CIS)
Launch site: PLESETSK MISSILE AND SPACE COMPLEX (PKMTR)
Your satellite tracking list
Your tracking list is empty




NASA's NSSDC Master Catalog

Two Line Element Set (TLE):
1 13124U 82029A   25183.60621787 -.00000306  00000-0  00000-0 0  9998
2 13124  71.9087 158.2547 5043363 342.6083 222.2475  2.00361156316386
Source of the keplerian elements: AFSPC